{"data":{"norad_id":57786,"intl_designator":"2023-134R","name":"STARLINK-30382","alt_names":[],"object_type":"PAYLOAD","status":"ACTIVE","operator":null,"country":"US","launch_date":"2023-09-04","launch_site_code":"AFETR","launch_vehicle":null,"mission":null,"orbit_class":"UNKNOWN","rcs_meters":null,"size_class":null,"mass_kg":null,"dimensions":null,"purposes":["comms"],"wikipedia_slug":null,"has_3d_model":false,"image_url":null,"decayed_at":null,"tle_current":{"epoch":"2026-05-25T05:06:53.357184Z","epoch_age_seconds":59670,"freshness":"FRESH","line1":"1 57786U 23134R   26145.21311756  .00000582  00000+0  30672-4 0  9996","line2":"2 57786  43.0021 122.0147 0001378 265.9393  94.1301 15.27578091151211","mean_motion":15.27578091,"eccentricity":0.0001378,"inclination_deg":43.0021,"raan_deg":122.0147,"arg_perigee_deg":265.9393,"mean_anomaly_deg":94.1301,"bstar":3.0672e-5,"rev_number":15121,"period_min":94.266866517923,"perigee_km":482.10934004663,"apogee_km":484.0002845101,"semimajor_km":6861.1918122784,"source":"CELESTRAK","updated_at":"2026-05-25T13:38:18.406978Z"}}}